Back to catalog

METEOR 2-17 DEB

AlivePO
NORAD 38542·DEBRIS·🇷🇺 Russia

Launched Jan 30, 1988 from Plesetsk Cosmodrome

Loading…

Next Passes (next 24 hours)

TLE

FreshSource: Space-Track

Epoch: Sep 13, 2026, 12:39 UTC

1 38542U 88005AV  26256.52771321  .00001810  00000-0  11711-2 0  9995
2 38542  82.5307 189.3900 0025703   4.6461 355.4942 14.02156783616717

Track METEOR 2-17 DEB in real time with AllMySat

Download on the App Store